Location: Cargill Incorporated Elevator
(42.7294°N, 93.7333°W)
Time: 05:01:04
(UTC+00:00)

Okean 2 - Pass Details

Date: 19 January 2026
Orbit: 515 x 525 km, 82.5° (Epoch: 14 February)

Event Time Altitude Azimuth Distance (km) Brightness Sun altitude
Rises 23:43:27 0° 177° (S) 2,635 7.1 -6.2°
Reaches altitude 10° 23:45:36 10° 173° (S) 1,750 6.1 -6.5°
Maximum altitude 23:49:22 57° 95° (E) 618 3.3 -7.2°
Drops below altitude 10° 23:53:09 10° 16° (NNE) 1,758 5.5 -7.8°
Sets 23:55:18 0° 13° (NNE) 2,649 6.5 -8.2°
